sat.trackr.live / text

‹ back to catalog

STARLINK-30154

NORAD 57495 · 2023-113A

PAYLOAD ACTIVE UNKNOWN

§ Identity

Operator
Country
US
Launch date
2023-08-07
Launch site
AFETR
Launch vehicle
Mass (kg)
RCS (m²)

Purposes: comms

External: N2YO · Heavens-Above · Gunter

§ Orbital elements

Epoch: 2026-05-25T04:02:50.472672Z

Period
94.27 min
Inclination
43.0041°
Eccentricity
0.0001525
Mean motion
15.27580466 rev/d
Perigee alt
482.0 km
Apogee alt
484.1 km
Semi-major
6,861.2 km
B*
6.3280e-5
RAAN
303.9782°
Arg perigee
262.9792°
Mean anomaly
97.0886°
Rev number
15,521

§ Raw data

STARLINK-301541 57495U 23113A   26145.16863973  .00001479  00000+0  63280-4 0  99942 57495  43.0041 303.9782 0001525 262.9792  97.0886 15.27580466155212

JSON: /api/v1/satellites/57495 · /tle

For live sub-satellite position, see the globe view (requires WebGL).

§ Visibility from observer

Set your observer location to see the next 7 days of passes ≥ 10°. The values pass through the URL so the page stays shareable.

No JS? Fill the form by hand. The geolocation button needs JavaScript.